Time,TemperatureF,DewpointF,PressureIn,WindDirection,WindDirectionDegrees,WindSpeedMPH,WindSpeedGustMPH,Humidity,HourlyPrecipIn,Conditions,Clouds,dailyrainin,SolarRadiationWatts/m^2,SoftwareType,DateUTC
2013-08-31 00:01:00,66.3,64.2,29.76,SE,142,0.0,0.0,93,0.00,,,0.00,0,Wunderground v.1.15,2013-08-31 04:01:00,
2013-08-31 00:02:00,66.3,64.2,29.76,SE,142,0.0,0.0,93,0.00,,,0.00,0,Wunderground v.1.15,2013-08-31 04:02:00,
2013-08-31 00:07:00,66.2,64.1,29.76,SE,142,0.0,0.0,93,0.00,,,0.00,0,Wunderground v.1.15,2013-08-31 04:07:00,
2013-08-31 00:08:00,66.2,64.1,29.76,SE,142,0.0,1.0,93,0.00,,,0.00,0,Wunderground v.1.15,2013-08-31 04:08:00,
2013-08-31 00:14:00,66.1,64.0,29.76,SE,142,0.0,0.0,93,0.00,,,0.00,0,Wunderground v.1.15,2013-08-31 04:14:00,
2013-08-31 00:20:00,66.1,64.0,29.76,SE,142,0.0,0.0,93,0.00,,,0.00,0,Wunderground v.1.15,2013-08-31 04:20:00,
2013-08-31 00:24:00,66.0,63.9,29.76,SE,142,0.0,0.0,93,0.00,,,0.00,0,Wunderground v.1.15,2013-08-31 04:24:00,
2013-08-31 00:30:00,65.9,63.8,29.76,SE,142,0.0,0.0,93,0.00,,,0.00,0,Wunderground v.1.15,2013-08-31 04:30:00,
2013-08-31 00:36:00,65.9,64.1,29.76,SE,142,0.0,0.0,94,0.00,,,0.00,0,Wunderground v.1.15,2013-08-31 04:36:00,
2013-08-31 00:41:00,65.9,64.1,29.76,SE,142,0.0,0.0,94,0.00,,,0.00,0,Wunderground v.1.15,2013-08-31 04:41:00,
2013-08-31 00:47:00,65.9,64.1,29.76,SE,142,0.0,0.0,94,0.00,,,0.00,0,Wunderground v.1.15,2013-08-31 04:47:00,
2013-08-31 00:52:00,65.9,64.1,29.76,SE,142,0.0,0.0,94,0.00,,,0.00,0,Wunderground v.1.15,2013-08-31 04:52:00,
2013-08-31 00:58:00,66.0,64.2,29.76,SE,142,0.0,0.0,94,0.00,,,0.00,0,Wunderground v.1.15,2013-08-31 04:58:00,
2013-08-31 01:04:00,66.0,64.2,29.76,SE,141,0.0,1.0,94,0.00,,,0.00,0,Wunderground v.1.15,2013-08-31 05:04:00,
2013-08-31 01:09:00,65.8,64.0,29.77,NNE,31,2.0,6.0,94,0.00,,,0.00,0,Wunderground v.1.15,2013-08-31 05:09:00,
2013-08-31 01:15:00,65.9,64.1,29.77,North,355,3.0,5.0,94,0.00,,,0.00,0,Wunderground v.1.15,2013-08-31 05:15:00,
2013-08-31 01:20:00,66.1,64.6,29.76,NE,46,2.0,2.0,95,0.00,,,0.00,0,Wunderground v.1.15,2013-08-31 05:20:00,
2013-08-31 01:25:00,66.2,64.4,29.77,North,355,2.0,2.0,94,0.00,,,0.00,0,Wunderground v.1.15,2013-08-31 05:25:00,
2013-08-31 01:30:00,66.3,64.5,29.76,NNW,346,1.0,1.0,94,0.00,,,0.00,0,Wunderground v.1.15,2013-08-31 05:30:00,
2013-08-31 01:35:00,66.3,64.5,29.76,NNW,346,0.0,1.0,94,0.00,,,0.00,0,Wunderground v.1.15,2013-08-31 05:35:00,
2013-08-31 01:41:00,66.4,64.6,29.76,NNW,346,0.0,0.0,94,0.00,,,0.00,0,Wunderground v.1.15,2013-08-31 05:41:00,
2013-08-31 01:46:00,66.4,64.6,29.77,NNW,346,0.0,1.0,94,0.00,,,0.00,0,Wunderground v.1.15,2013-08-31 05:46:00,
2013-08-31 01:51:00,66.4,64.6,29.80,WNW,291,1.0,3.0,94,0.00,,,0.00,0,Wunderground v.1.15,2013-08-31 05:51:00,
2013-08-31 01:57:00,66.3,64.8,29.81,North,360,3.0,9.0,95,0.72,,,0.03,0,Wunderground v.1.15,2013-08-31 05:57:00,
2013-08-31 02:03:00,66.1,64.6,29.80,NE,38,4.0,5.0,95,1.00,,,0.14,0,Wunderground v.1.15,2013-08-31 06:03:00,
2013-08-31 02:08:00,65.9,64.4,29.81,NNW,328,3.0,5.0,95,0.35,,,0.19,0,Wunderground v.1.15,2013-08-31 06:08:00,
2013-08-31 02:13:00,65.8,64.3,29.80,ENE,62,3.0,3.0,95,1.16,,,0.28,0,Wunderground v.1.15,2013-08-31 06:13:00,
2013-08-31 02:18:00,65.7,64.5,29.78,North,360,2.0,7.0,96,0.37,,,0.33,0,Wunderground v.1.15,2013-08-31 06:18:00,
2013-08-31 02:23:00,65.5,64.3,29.78,North,5,2.0,2.0,96,0.10,,,0.33,0,Wunderground v.1.15,2013-08-31 06:23:00,
2013-08-31 02:28:00,65.4,64.2,29.78,North,10,2.0,2.0,96,0.05,,,0.33,0,Wunderground v.1.15,2013-08-31 06:28:00,
2013-08-31 02:33:00,65.3,64.1,29.77,NNW,330,1.0,1.0,96,0.04,,,0.33,0,Wunderground v.1.15,2013-08-31 06:33:00,
2013-08-31 02:38:00,65.2,64.0,29.77,NE,36,1.0,2.0,96,0.00,,,0.33,0,Wunderground v.1.15,2013-08-31 06:38:00,
2013-08-31 02:43:00,65.0,63.8,29.77,NNE,12,1.0,2.0,96,0.00,,,0.33,0,Wunderground v.1.15,2013-08-31 06:43:00,
2013-08-31 02:49:00,64.9,63.7,29.76,East,93,1.0,2.0,96,0.00,,,0.33,0,Wunderground v.1.15,2013-08-31 06:49:00,
2013-08-31 02:54:00,64.8,63.9,29.76,North,360,0.0,1.0,97,0.00,,,0.33,0,Wunderground v.1.15,2013-08-31 06:54:00,
2013-08-31 02:59:00,64.8,63.9,29.76,NNW,338,0.0,2.0,97,0.00,,,0.33,0,Wunderground v.1.15,2013-08-31 06:59:00,
2013-08-31 03:05:00,64.7,63.8,29.76,NNW,346,1.0,3.0,97,0.00,,,0.33,0,Wunderground v.1.15,2013-08-31 07:05:00,
2013-08-31 03:10:00,64.7,63.8,29.76,NNW,346,1.0,1.0,97,0.00,,,0.33,0,Wunderground v.1.15,2013-08-31 07:10:00,
2013-08-31 03:15:00,64.7,63.8,29.77,NNW,346,0.0,1.0,97,0.00,,,0.34,0,Wunderground v.1.15,2013-08-31 07:15:00,
2013-08-31 03:20:00,64.7,63.8,29.76,North,349,0.0,0.0,97,0.27,,,0.36,0,Wunderground v.1.15,2013-08-31 07:20:00,
2013-08-31 03:26:00,64.7,63.8,29.76,WNW,290,1.0,4.0,97,0.10,,,0.37,0,Wunderground v.1.15,2013-08-31 07:26:00,
2013-08-31 03:32:00,64.7,63.8,29.76,West,276,1.0,1.0,97,0.05,,,0.37,0,Wunderground v.1.15,2013-08-31 07:32:00,
2013-08-31 03:37:00,64.7,63.8,29.76,West,276,0.0,1.0,97,0.04,,,0.37,0,Wunderground v.1.15,2013-08-31 07:37:00,
2013-08-31 03:42:00,64.7,63.8,29.76,West,276,0.0,0.0,97,0.00,,,0.37,0,Wunderground v.1.15,2013-08-31 07:42:00,
2013-08-31 03:47:00,64.6,63.7,29.76,West,276,0.0,0.0,97,0.00,,,0.37,0,Wunderground v.1.15,2013-08-31 07:47:00,
2013-08-31 03:53:00,64.6,63.7,29.76,West,276,0.0,0.0,97,0.00,,,0.37,0,Wunderground v.1.15,2013-08-31 07:53:00,
2013-08-31 03:58:00,64.6,63.7,29.76,West,274,0.0,0.0,97,0.00,,,0.37,0,Wunderground v.1.15,2013-08-31 07:58:00,
2013-08-31 04:03:00,64.6,64.0,29.76,SSW,207,0.0,0.0,98,0.00,,,0.37,0,Wunderground v.1.15,2013-08-31 08:03:00,
2013-08-31 04:08:00,64.7,64.1,29.76,South,181,0.0,0.0,98,0.00,,,0.37,0,Wunderground v.1.15,2013-08-31 08:08:00,
2013-08-31 04:13:00,64.7,64.1,29.77,South,176,0.0,0.0,98,0.00,,,0.37,0,Wunderground v.1.15,2013-08-31 08:13:00,
2013-08-31 04:18:00,64.6,64.0,29.77,South,175,0.0,2.0,98,0.00,,,0.37,0,Wunderground v.1.15,2013-08-31 08:18:00,
2013-08-31 04:24:00,64.6,64.0,29.77,South,175,0.0,1.0,98,0.00,,,0.37,0,Wunderground v.1.15,2013-08-31 08:24:00,
2013-08-31 04:30:00,64.5,63.9,29.77,South,175,0.0,1.0,98,0.00,,,0.37,0,Wunderground v.1.15,2013-08-31 08:30:00,
2013-08-31 04:36:00,64.4,63.8,29.77,South,171,1.0,2.0,98,0.00,,,0.37,0,Wunderground v.1.15,2013-08-31 08:36:00,
2013-08-31 04:42:00,64.4,63.8,29.78,South,175,1.0,2.0,98,0.00,,,0.37,0,Wunderground v.1.15,2013-08-31 08:42:00,
2013-08-31 04:47:00,64.4,63.8,29.77,SSE,155,1.0,3.0,98,0.00,,,0.37,0,Wunderground v.1.15,2013-08-31 08:47:00,
2013-08-31 04:52:00,64.3,63.7,29.78,SSE,165,1.0,2.0,98,0.00,,,0.37,0,Wunderground v.1.15,2013-08-31 08:52:00,
2013-08-31 04:57:00,64.3,63.7,29.77,SSE,157,1.0,2.0,98,0.00,,,0.37,0,Wunderground v.1.15,2013-08-31 08:57:00,
2013-08-31 05:02:00,64.3,63.7,29.78,South,187,1.0,1.0,98,0.00,,,0.37,0,Wunderground v.1.15,2013-08-31 09:02:00,
2013-08-31 05:07:00,64.3,63.7,29.78,South,187,0.0,2.0,98,0.00,,,0.37,0,Wunderground v.1.15,2013-08-31 09:07:00,
2013-08-31 05:13:00,64.3,63.7,29.78,South,173,1.0,1.0,98,0.00,,,0.37,0,Wunderground v.1.15,2013-08-31 09:13:00,
2013-08-31 05:18:00,64.3,63.7,29.78,SW,217,1.0,1.0,98,0.00,,,0.37,0,Wunderground v.1.15,2013-08-31 09:18:00,
2013-08-31 05:23:00,64.3,63.7,29.78,South,186,0.0,1.0,98,0.00,,,0.37,0,Wunderground v.1.15,2013-08-31 09:23:00,
2013-08-31 05:28:00,64.3,63.7,29.79,South,170,0.0,2.0,98,0.00,,,0.37,0,Wunderground v.1.15,2013-08-31 09:28:00,
2013-08-31 05:34:00,64.2,63.6,29.78,South,181,1.0,1.0,98,0.00,,,0.37,0,Wunderground v.1.15,2013-08-31 09:34:00,
2013-08-31 05:40:00,64.1,63.5,29.79,South,180,0.0,2.0,98,0.00,,,0.37,0,Wunderground v.1.15,2013-08-31 09:40:00,
2013-08-31 05:45:00,64.1,63.5,29.79,SW,215,1.0,2.0,98,0.00,,,0.37,0,Wunderground v.1.15,2013-08-31 09:45:00,
2013-08-31 05:51:00,64.0,63.4,29.80,South,171,1.0,1.0,98,0.00,,,0.37,0,Wunderground v.1.15,2013-08-31 09:51:00,
2013-08-31 05:56:00,63.9,63.3,29.80,South,175,0.0,1.0,98,0.00,,,0.37,0,Wunderground v.1.15,2013-08-31 09:56:00,
2013-08-31 06:02:00,63.8,63.2,29.79,SSE,151,0.0,2.0,98,0.00,,,0.37,0,Wunderground v.1.15,2013-08-31 10:02:00,
2013-08-31 06:07:00,63.7,63.1,29.80,SW,222,1.0,2.0,98,0.00,,,0.37,0,Wunderground v.1.15,2013-08-31 10:07:00,
2013-08-31 06:13:00,63.6,63.0,29.80,SSW,211,0.0,0.0,98,0.00,,,0.37,5,Wunderground v.1.15,2013-08-31 10:13:00,
2013-08-31 06:18:00,63.6,63.0,29.79,SSW,211,0.0,1.0,98,0.00,,,0.37,9,Wunderground v.1.15,2013-08-31 10:18:00,
2013-08-31 06:24:00,63.6,63.0,29.80,SSW,211,0.0,1.0,98,0.00,,,0.37,16,Wunderground v.1.15,2013-08-31 10:24:00,
2013-08-31 06:30:00,63.5,62.9,29.80,SSW,211,0.0,0.0,98,0.00,,,0.37,26,Wunderground v.1.15,2013-08-31 10:30:00,
2013-08-31 06:36:00,63.6,63.3,29.81,SSW,211,0.0,1.0,99,0.00,,,0.37,37,Wunderground v.1.15,2013-08-31 10:36:00,
2013-08-31 06:42:00,63.6,63.3,29.81,SSE,159,0.0,1.0,99,0.00,,,0.37,32,Wunderground v.1.15,2013-08-31 10:42:00,
2013-08-31 06:48:00,63.7,63.4,29.80,South,186,1.0,2.0,99,0.00,,,0.37,33,Wunderground v.1.15,2013-08-31 10:48:00,
2013-08-31 06:53:00,63.6,63.3,29.80,SSW,205,1.0,2.0,99,0.00,,,0.37,37,Wunderground v.1.15,2013-08-31 10:53:00,
2013-08-31 06:58:00,63.6,63.3,29.80,South,171,1.0,4.0,99,0.00,,,0.37,33,Wunderground v.1.15,2013-08-31 10:58:00,
2013-08-31 07:04:00,63.7,63.4,29.80,SSW,196,1.0,1.0,99,0.00,,,0.37,35,Wunderground v.1.15,2013-08-31 11:04:00,
2013-08-31 07:10:00,63.7,63.4,29.80,SSW,196,0.0,0.0,99,0.00,,,0.37,35,Wunderground v.1.15,2013-08-31 11:10:00,
2013-08-31 07:16:00,63.8,63.5,29.80,SSW,196,0.0,0.0,99,0.00,,,0.37,32,Wunderground v.1.15,2013-08-31 11:16:00,
2013-08-31 07:22:00,63.9,63.6,29.80,SSW,196,0.0,0.0,99,0.00,,,0.37,42,Wunderground v.1.15,2013-08-31 11:22:00,
2013-08-31 07:27:00,63.9,63.6,29.80,SSW,196,0.0,0.0,99,0.00,,,0.37,49,Wunderground v.1.15,2013-08-31 11:27:00,
2013-08-31 07:32:00,64.0,63.7,29.80,SSW,196,0.0,0.0,99,0.00,,,0.37,47,Wunderground v.1.15,2013-08-31 11:32:00,
2013-08-31 07:37:00,64.0,63.7,29.80,WNW,283,0.0,2.0,99,0.00,,,0.37,40,Wunderground v.1.15,2013-08-31 11:37:00,
2013-08-31 07:43:00,64.2,63.9,29.80,NNW,328,0.0,0.0,99,0.00,,,0.37,35,Wunderground v.1.15,2013-08-31 11:43:00,
2013-08-31 07:48:00,64.2,63.9,29.80,North,9,0.0,1.0,99,0.00,,,0.37,44,Wunderground v.1.15,2013-08-31 11:48:00,
2013-08-31 07:53:00,64.2,63.9,29.80,ENE,69,0.0,0.0,99,0.00,,,0.37,47,Wunderground v.1.15,2013-08-31 11:53:00,
2013-08-31 07:58:00,64.3,64.0,29.80,NE,55,0.0,1.0,99,0.00,,,0.37,56,Wunderground v.1.15,2013-08-31 11:58:00,
2013-08-31 08:04:00,64.3,64.0,29.80,NE,49,0.0,1.0,99,0.00,,,0.37,67,Wunderground v.1.15,2013-08-31 12:04:00,
2013-08-31 08:09:00,64.4,64.1,29.80,NE,49,0.0,1.0,99,0.00,,,0.37,83,Wunderground v.1.15,2013-08-31 12:09:00,
2013-08-31 08:15:00,64.5,64.2,29.80,NE,49,0.0,0.0,99,0.00,,,0.37,114,Wunderground v.1.15,2013-08-31 12:15:00,
2013-08-31 08:20:00,64.6,64.3,29.80,NE,49,0.0,0.0,99,0.00,,,0.37,139,Wunderground v.1.15,2013-08-31 12:20:00,
2013-08-31 08:26:00,65.0,64.7,29.80,ENE,68,0.0,0.0,99,0.00,,,0.37,151,Wunderground v.1.15,2013-08-31 12:26:00,
2013-08-31 08:32:00,65.3,65.0,29.80,NNE,12,0.0,0.0,99,0.00,,,0.37,162,Wunderground v.1.15,2013-08-31 12:32:00,
2013-08-31 08:37:00,65.5,65.2,29.80,NNE,12,0.0,0.0,99,0.00,,,0.37,276,Wunderground v.1.15,2013-08-31 12:37:00,
2013-08-31 08:42:00,66.1,65.8,29.80,East,93,0.0,0.0,99,0.00,,,0.37,454,Wunderground v.1.15,2013-08-31 12:42:00,
2013-08-31 08:47:00,66.7,66.4,29.80,SE,134,0.0,0.0,99,0.00,,,0.37,471,Wunderground v.1.15,2013-08-31 12:47:00,
2013-08-31 08:53:00,67.1,66.8,29.80,SW,233,0.0,1.0,99,0.00,,,0.37,483,Wunderground v.1.15,2013-08-31 12:53:00,
2013-08-31 08:58:00,67.5,67.2,29.81,SW,229,0.0,1.0,99,0.00,,,0.37,234,Wunderground v.1.15,2013-08-31 12:58:00,
2013-08-31 09:04:00,68.0,67.7,29.81,SW,229,0.0,0.0,99,0.00,,,0.37,482,Wunderground v.1.15,2013-08-31 13:04:00,
2013-08-31 09:10:00,68.7,68.4,29.81,SSW,209,0.0,0.0,99,0.00,,,0.37,510,Wunderground v.1.15,2013-08-31 13:10:00,
2013-08-31 09:15:00,69.4,69.1,29.81,South,177,0.0,4.0,99,0.00,,,0.37,339,Wunderground v.1.15,2013-08-31 13:15:00,
2013-08-31 09:20:00,70.0,69.4,29.81,SSE,154,1.0,1.0,98,0.00,,,0.37,281,Wunderground v.1.15,2013-08-31 13:20:00,
2013-08-31 09:25:00,70.3,69.1,29.81,SE,130,1.0,4.0,96,0.00,,,0.37,251,Wunderground v.1.15,2013-08-31 13:25:00,
2013-08-31 09:31:00,70.4,68.9,29.81,SE,130,1.0,3.0,95,0.00,,,0.37,367,Wunderground v.1.15,2013-08-31 13:31:00,
2013-08-31 09:37:00,70.6,68.8,29.81,SSE,155,1.0,3.0,94,0.00,,,0.37,357,Wunderground v.1.15,2013-08-31 13:37:00,
2013-08-31 09:43:00,71.1,69.0,29.81,SSW,192,1.0,2.0,93,0.00,,,0.37,459,Wunderground v.1.15,2013-08-31 13:43:00,
2013-08-31 09:48:00,71.4,69.0,29.81,SSW,197,1.0,3.0,92,0.00,,,0.37,330,Wunderground v.1.15,2013-08-31 13:48:00,
2013-08-31 09:54:00,71.6,68.8,29.81,SSW,207,2.0,2.0,91,0.00,,,0.37,269,Wunderground v.1.15,2013-08-31 13:54:00,
2013-08-31 10:00:00,71.6,68.5,29.81,SSE,152,2.0,3.0,90,0.00,,,0.37,301,Wunderground v.1.15,2013-08-31 14:00:00,
2013-08-31 10:05:00,71.8,69.0,29.81,ESE,119,1.0,3.0,91,0.00,,,0.37,642,Wunderground v.1.15,2013-08-31 14:05:00,
2013-08-31 10:10:00,72.3,69.2,29.81,South,175,1.0,3.0,90,0.00,,,0.37,608,Wunderground v.1.15,2013-08-31 14:10:00,
2013-08-31 10:16:00,73.0,69.9,29.81,ESE,121,1.0,5.0,90,0.00,,,0.37,635,Wunderground v.1.15,2013-08-31 14:16:00,
2013-08-31 10:22:00,73.4,70.0,29.81,SSE,154,1.0,4.0,89,0.00,,,0.37,640,Wunderground v.1.15,2013-08-31 14:22:00,
2013-08-31 10:28:00,73.8,70.0,29.81,SSW,213,1.0,4.0,88,0.00,,,0.37,362,Wunderground v.1.15,2013-08-31 14:28:00,
2013-08-31 10:33:00,74.1,70.0,29.81,WSW,242,1.0,3.0,87,0.00,,,0.37,657,Wunderground v.1.15,2013-08-31 14:33:00,
2013-08-31 10:38:00,74.2,70.1,29.81,SSW,201,1.0,3.0,87,0.00,,,0.37,631,Wunderground v.1.15,2013-08-31 14:38:00,
2013-08-31 10:44:00,74.5,70.0,29.81,South,174,2.0,4.0,86,0.00,,,0.37,722,Wunderground v.1.15,2013-08-31 14:44:00,
2013-08-31 10:49:00,74.8,70.3,29.81,SSW,199,2.0,4.0,86,0.00,,,0.37,478,Wunderground v.1.15,2013-08-31 14:49:00,
2013-08-31 10:55:00,74.9,70.4,29.81,SW,232,2.0,4.0,86,0.00,,,0.37,383,Wunderground v.1.15,2013-08-31 14:55:00,
2013-08-31 11:01:00,74.9,70.8,29.81,WSW,238,2.0,2.0,87,0.00,,,0.37,279,Wunderground v.1.15,2013-08-31 15:01:00,
2013-08-31 11:06:00,74.9,70.4,29.81,SSW,192,1.0,4.0,86,0.00,,,0.37,323,Wunderground v.1.15,2013-08-31 15:06:00,
2013-08-31 11:11:00,74.8,70.3,29.81,SSW,201,1.0,3.0,86,0.00,,,0.37,378,Wunderground v.1.15,2013-08-31 15:11:00,
2013-08-31 11:17:00,74.6,70.1,29.81,SSW,196,1.0,3.0,86,0.00,,,0.37,329,Wunderground v.1.15,2013-08-31 15:17:00,
2013-08-31 11:23:00,74.7,70.2,29.81,WSW,252,1.0,2.0,86,0.00,,,0.37,387,Wunderground v.1.15,2013-08-31 15:23:00,
2013-08-31 11:28:00,74.8,70.3,29.81,SW,224,1.0,3.0,86,0.00,,,0.37,411,Wunderground v.1.15,2013-08-31 15:28:00,
2013-08-31 11:33:00,74.9,70.4,29.81,SW,233,1.0,3.0,86,0.00,,,0.37,603,Wunderground v.1.15,2013-08-31 15:33:00,
2013-08-31 11:38:00,75.5,71.0,29.81,South,190,1.0,3.0,86,0.00,,,0.37,840,Wunderground v.1.15,2013-08-31 15:38:00,
2013-08-31 11:44:00,76.2,71.4,29.80,WSW,244,1.0,2.0,85,0.00,,,0.37,828,Wunderground v.1.15,2013-08-31 15:44:00,
2013-08-31 11:49:00,76.8,71.2,29.80,SW,217,1.0,4.0,83,0.00,,,0.37,802,Wunderground v.1.15,2013-08-31 15:49:00,
2013-08-31 11:55:00,77.1,71.2,29.79,SSW,200,2.0,3.0,82,0.00,,,0.37,745,Wunderground v.1.15,2013-08-31 15:55:00,
2013-08-31 12:01:00,77.5,71.2,29.79,SSW,198,2.0,3.0,81,0.00,,,0.37,733,Wunderground v.1.15,2013-08-31 16:01:00,
2013-08-31 12:06:00,78.0,71.7,29.79,SSE,148,1.0,3.0,81,0.00,,,0.37,744,Wunderground v.1.15,2013-08-31 16:06:00,
2013-08-31 12:12:00,78.5,71.8,29.79,SSW,202,1.0,1.0,80,0.00,,,0.37,738,Wunderground v.1.15,2013-08-31 16:12:00,
2013-08-31 12:18:00,78.8,71.7,29.79,WSW,240,1.0,3.0,79,0.00,,,0.37,745,Wunderground v.1.15,2013-08-31 16:18:00,
2013-08-31 12:23:00,78.9,71.5,29.79,SSW,193,1.0,3.0,78,0.00,,,0.37,742,Wunderground v.1.15,2013-08-31 16:23:00,
2013-08-31 12:28:00,79.0,71.6,29.79,SSW,194,1.0,4.0,78,0.00,,,0.37,754,Wunderground v.1.15,2013-08-31 16:28:00,
2013-08-31 12:34:00,79.2,71.7,29.79,SW,234,2.0,3.0,78,0.00,,,0.37,752,Wunderground v.1.15,2013-08-31 16:34:00,
2013-08-31 12:39:00,79.3,71.5,29.79,SE,132,2.0,3.0,77,0.00,,,0.37,752,Wunderground v.1.15,2013-08-31 16:39:00,
2013-08-31 12:44:00,79.3,71.8,29.78,SE,135,2.0,3.0,78,0.00,,,0.37,747,Wunderground v.1.15,2013-08-31 16:44:00,
2013-08-31 12:50:00,79.7,71.8,29.78,South,169,1.0,2.0,77,0.00,,,0.37,747,Wunderground v.1.15,2013-08-31 16:50:00,
2013-08-31 12:55:00,79.8,72.3,29.78,West,269,1.0,3.0,78,0.00,,,0.37,738,Wunderground v.1.15,2013-08-31 16:55:00,
2013-08-31 13:00:00,80.1,71.8,29.78,SSW,197,1.0,3.0,76,0.00,,,0.37,751,Wunderground v.1.15,2013-08-31 17:00:00,
2013-08-31 13:06:00,80.4,71.7,29.78,SSW,206,2.0,3.0,75,0.00,,,0.37,744,Wunderground v.1.15,2013-08-31 17:06:00,
2013-08-31 13:11:00,80.7,71.2,29.78,SE,142,2.0,2.0,73,0.00,,,0.37,745,Wunderground v.1.15,2013-08-31 17:11:00,
2013-08-31 13:17:00,81.3,71.8,29.77,WSW,237,1.0,2.0,73,0.00,,,0.37,749,Wunderground v.1.15,2013-08-31 17:17:00,
2013-08-31 13:22:00,81.3,70.6,29.78,SSE,148,2.0,4.0,70,0.00,,,0.37,731,Wunderground v.1.15,2013-08-31 17:22:00,
2013-08-31 13:28:00,81.1,70.4,29.78,SE,142,3.0,4.0,70,0.00,,,0.37,745,Wunderground v.1.15,2013-08-31 17:28:00,
2013-08-31 13:34:00,81.1,70.0,29.78,ESE,119,3.0,5.0,69,0.00,,,0.37,742,Wunderground v.1.15,2013-08-31 17:34:00,
2013-08-31 13:39:00,81.5,72.0,29.78,West,278,3.0,5.0,73,0.00,,,0.37,735,Wunderground v.1.15,2013-08-31 17:39:00,
2013-08-31 13:45:00,81.9,71.6,29.78,South,182,2.0,4.0,71,0.00,,,0.37,731,Wunderground v.1.15,2013-08-31 17:45:00,
2013-08-31 13:50:00,82.1,71.3,29.78,SSE,157,3.0,3.0,70,0.00,,,0.37,735,Wunderground v.1.15,2013-08-31 17:50:00,
2013-08-31 13:55:00,82.4,71.6,29.78,SSE,150,2.0,3.0,70,0.00,,,0.37,740,Wunderground v.1.15,2013-08-31 17:55:00,
2013-08-31 14:00:00,82.3,71.1,29.78,SSE,165,2.0,2.0,69,0.00,,,0.37,754,Wunderground v.1.15,2013-08-31 18:00:00,
2013-08-31 14:05:00,82.4,71.6,29.78,SSW,209,3.0,6.0,70,0.00,,,0.37,448,Wunderground v.1.15,2013-08-31 18:05:00,
2013-08-31 14:10:00,81.8,71.5,29.78,South,180,3.0,6.0,71,0.00,,,0.37,223,Wunderground v.1.15,2013-08-31 18:10:00,
2013-08-31 14:16:00,80.7,70.8,29.78,SSE,159,4.0,6.0,72,0.00,,,0.37,810,Wunderground v.1.15,2013-08-31 18:16:00,
2013-08-31 14:22:00,79.7,70.7,29.78,South,178,4.0,5.0,74,0.00,,,0.37,283,Wunderground v.1.15,2013-08-31 18:22:00,
2013-08-31 14:28:00,79.0,70.4,29.78,SSW,205,4.0,6.0,75,0.00,,,0.37,290,Wunderground v.1.15,2013-08-31 18:28:00,
2013-08-31 14:34:00,79.4,70.4,29.78,South,187,4.0,6.0,74,0.00,,,0.37,327,Wunderground v.1.15,2013-08-31 18:34:00,
2013-08-31 14:40:00,78.5,69.9,29.78,SE,130,4.0,8.0,75,0.00,,,0.37,348,Wunderground v.1.15,2013-08-31 18:40:00,
2013-08-31 14:46:00,77.2,69.4,29.78,SSE,168,5.0,8.0,77,0.00,,,0.37,371,Wunderground v.1.15,2013-08-31 18:46:00,
2013-08-31 14:51:00,76.1,69.1,29.78,South,186,4.0,5.0,79,0.00,,,0.37,367,Wunderground v.1.15,2013-08-31 18:51:00,
2013-08-31 14:56:00,75.3,68.3,29.78,SSW,195,5.0,10.0,79,0.00,,,0.37,318,Wunderground v.1.15,2013-08-31 18:56:00,
2013-08-31 15:01:00,74.5,68.3,29.78,SW,232,6.0,9.0,81,0.00,,,0.37,383,Wunderground v.1.15,2013-08-31 19:01:00,
2013-08-31 15:07:00,74.2,68.3,29.78,SE,130,5.0,9.0,82,0.00,,,0.37,397,Wunderground v.1.15,2013-08-31 19:07:00,
2013-08-31 15:12:00,74.2,68.3,29.78,South,177,4.0,6.0,82,0.00,,,0.37,318,Wunderground v.1.15,2013-08-31 19:12:00,
2013-08-31 15:18:00,73.9,68.4,29.78,SSW,196,4.0,7.0,83,0.00,,,0.37,390,Wunderground v.1.15,2013-08-31 19:18:00,
2013-08-31 15:23:00,73.9,68.4,29.78,SW,234,4.0,4.0,83,0.00,,,0.37,367,Wunderground v.1.15,2013-08-31 19:23:00,
2013-08-31 15:28:00,74.2,69.1,29.78,SE,139,3.0,5.0,84,0.00,,,0.37,290,Wunderground v.1.15,2013-08-31 19:28:00,
2013-08-31 15:33:00,74.3,68.8,29.78,SSE,163,3.0,4.0,83,0.00,,,0.37,214,Wunderground v.1.15,2013-08-31 19:33:00,
2013-08-31 15:39:00,74.4,68.9,29.79,SSW,196,3.0,4.0,83,0.00,,,0.37,216,Wunderground v.1.15,2013-08-31 19:39:00,
2013-08-31 15:44:00,74.6,69.1,29.79,South,180,2.0,3.0,83,0.00,,,0.37,211,Wunderground v.1.15,2013-08-31 19:44:00,
2013-08-31 15:50:00,74.5,69.0,29.79,SSW,198,2.0,3.0,83,0.00,,,0.37,192,Wunderground v.1.15,2013-08-31 19:50:00,
2013-08-31 15:55:00,74.4,68.5,29.79,SSE,150,3.0,5.0,82,0.00,,,0.37,237,Wunderground v.1.15,2013-08-31 19:55:00,
2013-08-31 16:00:00,74.2,68.7,29.78,SSE,153,4.0,4.0,83,0.00,,,0.37,218,Wunderground v.1.15,2013-08-31 20:00:00,
2013-08-31 16:06:00,74.3,68.8,29.79,South,185,3.0,4.0,83,0.00,,,0.37,181,Wunderground v.1.15,2013-08-31 20:06:00,
2013-08-31 16:11:00,74.3,68.8,29.79,South,170,2.0,2.0,83,0.00,,,0.37,135,Wunderground v.1.15,2013-08-31 20:11:00,
2013-08-31 16:17:00,74.2,68.7,29.78,SW,216,2.0,5.0,83,0.00,,,0.37,174,Wunderground v.1.15,2013-08-31 20:17:00,
2013-08-31 16:23:00,74.0,68.9,29.78,South,183,3.0,7.0,84,0.00,,,0.37,309,Wunderground v.1.15,2013-08-31 20:23:00,
2013-08-31 16:29:00,73.6,68.8,29.79,WSW,243,4.0,7.0,85,0.00,,,0.37,214,Wunderground v.1.15,2013-08-31 20:29:00,
2013-08-31 16:35:00,73.0,68.6,29.78,SSW,207,5.0,7.0,86,0.00,,,0.37,130,Wunderground v.1.15,2013-08-31 20:35:00,
2013-08-31 16:40:00,72.8,68.7,29.79,SE,128,3.0,3.0,87,0.00,,,0.37,132,Wunderground v.1.15,2013-08-31 20:40:00,
2013-08-31 16:46:00,72.5,68.4,29.79,SW,219,3.0,5.0,87,0.00,,,0.37,128,Wunderground v.1.15,2013-08-31 20:46:00,
2013-08-31 16:51:00,72.3,68.5,29.79,SSE,148,2.0,2.0,88,0.00,,,0.37,149,Wunderground v.1.15,2013-08-31 20:51:00,
2013-08-31 16:57:00,72.2,68.4,29.78,South,187,1.0,5.0,88,0.00,,,0.37,188,Wunderground v.1.15,2013-08-31 20:57:00,
2013-08-31 17:02:00,72.2,68.4,29.78,SSW,201,2.0,3.0,88,0.00,,,0.37,155,Wunderground v.1.15,2013-08-31 21:02:00,
2013-08-31 17:08:00,72.1,68.3,29.78,SSW,201,2.0,3.0,88,0.00,,,0.37,98,Wunderground v.1.15,2013-08-31 21:08:00,
2013-08-31 17:13:00,72.1,68.7,29.79,South,169,1.0,4.0,89,0.00,,,0.37,63,Wunderground v.1.15,2013-08-31 21:13:00,
2013-08-31 17:19:00,71.9,68.5,29.78,SSE,167,2.0,4.0,89,0.00,,,0.37,62,Wunderground v.1.15,2013-08-31 21:19:00,
2013-08-31 17:25:00,71.7,68.3,29.78,ESE,112,1.0,6.0,89,0.00,,,0.37,39,Wunderground v.1.15,2013-08-31 21:25:00,
2013-08-31 17:31:00,71.7,68.3,29.79,SSW,212,1.0,1.0,89,0.00,,,0.37,28,Wunderground v.1.15,2013-08-31 21:31:00,
2013-08-31 17:36:00,71.7,68.6,29.79,WSW,238,0.0,1.0,90,0.00,,,0.37,21,Wunderground v.1.15,2013-08-31 21:36:00,
2013-08-31 17:42:00,71.5,68.4,29.79,SSE,164,1.0,3.0,90,0.00,,,0.37,19,Wunderground v.1.15,2013-08-31 21:42:00,
2013-08-31 17:48:00,71.2,68.1,29.79,South,172,2.0,3.0,90,0.00,,,0.37,16,Wunderground v.1.15,2013-08-31 21:48:00,
2013-08-31 17:53:00,71.0,67.9,29.78,South,186,2.0,5.0,90,0.00,,,0.37,14,Wunderground v.1.15,2013-08-31 21:53:00,
2013-08-31 17:58:00,70.7,67.9,29.78,SSE,159,2.0,5.0,91,0.00,,,0.37,14,Wunderground v.1.15,2013-08-31 21:58:00,
2013-08-31 18:03:00,70.5,67.7,29.78,SSW,198,1.0,2.0,91,0.00,,,0.37,19,Wunderground v.1.15,2013-08-31 22:03:00,
2013-08-31 18:09:00,70.4,68.0,29.78,South,171,1.0,2.0,92,0.00,,,0.37,18,Wunderground v.1.15,2013-08-31 22:09:00,
2013-08-31 18:14:00,70.4,68.3,29.78,SSE,156,1.0,2.0,93,0.00,,,0.37,12,Wunderground v.1.15,2013-08-31 22:14:00,
2013-08-31 18:20:00,70.3,68.2,29.78,SSW,200,0.0,0.0,93,0.00,,,0.37,7,Wunderground v.1.15,2013-08-31 22:20:00,
2013-08-31 18:26:00,70.3,68.2,29.78,South,182,1.0,3.0,93,0.00,,,0.37,5,Wunderground v.1.15,2013-08-31 22:26:00,
2013-08-31 18:32:00,70.1,68.0,29.79,SSW,208,1.0,3.0,93,0.00,,,0.37,9,Wunderground v.1.15,2013-08-31 22:32:00,
2013-08-31 18:38:00,70.0,67.9,29.78,SSW,202,1.0,3.0,93,0.00,,,0.37,14,Wunderground v.1.15,2013-08-31 22:38:00,
2013-08-31 18:43:00,69.9,68.1,29.78,SSW,211,1.0,2.0,94,0.00,,,0.37,14,Wunderground v.1.15,2013-08-31 22:43:00,
2013-08-31 18:49:00,69.8,68.0,29.78,SSE,163,1.0,2.0,94,0.00,,,0.37,16,Wunderground v.1.15,2013-08-31 22:49:00,
2013-08-31 18:55:00,69.7,67.9,29.78,SSE,160,1.0,1.0,94,0.00,,,0.37,11,Wunderground v.1.15,2013-08-31 22:55:00,
2013-08-31 19:01:00,69.8,68.0,29.78,South,171,0.0,1.0,94,0.00,,,0.37,7,Wunderground v.1.15,2013-08-31 23:01:00,
2013-08-31 19:07:00,69.7,67.9,29.78,SE,145,0.0,3.0,94,0.00,,,0.37,0,Wunderground v.1.15,2013-08-31 23:07:00,
2013-08-31 19:12:00,69.6,67.8,29.78,South,186,1.0,4.0,94,0.00,,,0.37,0,Wunderground v.1.15,2013-08-31 23:12:00,
2013-08-31 19:17:00,69.5,67.7,29.78,SE,139,1.0,4.0,94,0.00,,,0.37,0,Wunderground v.1.15,2013-08-31 23:17:00,
2013-08-31 19:23:00,69.4,67.6,29.78,SE,138,1.0,3.0,94,0.00,,,0.37,0,Wunderground v.1.15,2013-08-31 23:23:00,
2013-08-31 19:29:00,69.3,67.5,29.79,South,182,1.0,3.0,94,0.00,,,0.37,0,Wunderground v.1.15,2013-08-31 23:29:00,
2013-08-31 19:35:00,69.2,67.4,29.79,SSE,148,2.0,4.0,94,0.00,,,0.37,0,Wunderground v.1.15,2013-08-31 23:35:00,
2013-08-31 19:41:00,69.0,67.2,29.78,SSE,159,2.0,2.0,94,0.00,,,0.37,0,Wunderground v.1.15,2013-08-31 23:41:00,
2013-08-31 19:47:00,68.9,67.4,29.79,SSE,161,2.0,3.0,95,0.00,,,0.37,0,Wunderground v.1.15,2013-08-31 23:47:00,
2013-08-31 19:52:00,68.8,67.3,29.79,South,169,2.0,2.0,95,0.00,,,0.37,0,Wunderground v.1.15,2013-08-31 23:52:00,
2013-08-31 19:58:00,68.7,67.2,29.79,SSE,166,2.0,4.0,95,0.00,,,0.37,0,Wunderground v.1.15,2013-08-31 23:58:00,
2013-08-31 20:04:00,68.6,67.1,29.79,South,170,2.0,3.0,95,0.00,,,0.37,0,Wunderground v.1.15,2013-09-01 00:04:00,
2013-08-31 20:10:00,68.6,67.1,29.79,SSW,204,1.0,1.0,95,0.00,,,0.37,0,Wunderground v.1.15,2013-09-01 00:10:00,
2013-08-31 20:16:00,68.6,67.1,29.79,SE,144,1.0,1.0,95,0.00,,,0.37,0,Wunderground v.1.15,2013-09-01 00:16:00,
2013-08-31 20:21:00,68.6,67.1,29.80,South,188,1.0,1.0,95,0.00,,,0.37,0,Wunderground v.1.15,2013-09-01 00:21:00,
2013-08-31 20:26:00,68.6,67.1,29.79,SSE,154,1.0,2.0,95,0.00,,,0.37,0,Wunderground v.1.15,2013-09-01 00:26:00,
2013-08-31 20:32:00,68.5,67.3,29.79,South,178,1.0,2.0,96,0.00,,,0.37,0,Wunderground v.1.15,2013-09-01 00:32:00,
2013-08-31 20:37:00,68.4,67.2,29.80,South,181,1.0,3.0,96,0.00,,,0.37,0,Wunderground v.1.15,2013-09-01 00:37:00,
2013-08-31 20:42:00,68.4,67.2,29.80,SE,146,2.0,2.0,96,0.00,,,0.37,0,Wunderground v.1.15,2013-09-01 00:42:00,
2013-08-31 20:47:00,68.4,67.2,29.80,SSE,168,2.0,3.0,96,0.00,,,0.37,0,Wunderground v.1.15,2013-09-01 00:47:00,
2013-08-31 20:52:00,68.3,67.1,29.79,South,182,2.0,2.0,96,0.00,,,0.37,0,Wunderground v.1.15,2013-09-01 00:52:00,
2013-08-31 20:58:00,68.2,67.0,29.79,South,186,2.0,4.0,96,0.00,,,0.37,0,Wunderground v.1.15,2013-09-01 00:58:00,
2013-08-31 21:03:00,68.1,66.9,29.79,SSW,195,2.0,4.0,96,0.00,,,0.37,0,Wunderground v.1.15,2013-09-01 01:03:00,
2013-08-31 21:08:00,68.1,66.9,29.79,South,190,2.0,4.0,96,0.00,,,0.37,0,Wunderground v.1.15,2013-09-01 01:08:00,
2013-08-31 21:14:00,68.0,66.8,29.80,South,169,1.0,2.0,96,0.00,,,0.37,0,Wunderground v.1.15,2013-09-01 01:14:00,
2013-08-31 21:19:00,68.0,66.8,29.80,South,189,1.0,2.0,96,0.00,,,0.37,0,Wunderground v.1.15,2013-09-01 01:19:00,
2013-08-31 21:25:00,68.0,66.8,29.80,SE,145,0.0,1.0,96,0.00,,,0.37,0,Wunderground v.1.15,2013-09-01 01:25:00,
2013-08-31 21:30:00,68.0,66.8,29.80,SE,145,0.0,0.0,96,0.00,,,0.37,0,Wunderground v.1.15,2013-09-01 01:30:00,
2013-08-31 21:36:00,68.0,66.8,29.79,SSE,150,0.0,1.0,96,0.00,,,0.37,0,Wunderground v.1.15,2013-09-01 01:36:00,
2013-08-31 21:41:00,68.0,66.8,29.79,SSE,152,1.0,1.0,96,0.00,,,0.37,0,Wunderground v.1.15,2013-09-01 01:41:00,
2013-08-31 21:46:00,67.9,66.7,29.78,SE,140,1.0,2.0,96,0.00,,,0.37,0,Wunderground v.1.15,2013-09-01 01:46:00,
2013-08-31 21:51:00,67.9,67.0,29.78,SSE,157,2.0,2.0,97,0.00,,,0.37,0,Wunderground v.1.15,2013-09-01 01:51:00,
2013-08-31 21:56:00,67.9,67.0,29.78,SSE,149,1.0,3.0,97,0.00,,,0.37,0,Wunderground v.1.15,2013-09-01 01:56:00,
2013-08-31 22:01:00,67.9,67.0,29.79,SSE,149,1.0,1.0,97,0.00,,,0.37,0,Wunderground v.1.15,2013-09-01 02:01:00,
2013-08-31 22:07:00,67.9,67.0,29.79,SSE,149,0.0,1.0,97,0.00,,,0.37,0,Wunderground v.1.15,2013-09-01 02:07:00,
2013-08-31 22:12:00,67.9,67.0,29.79,SSE,167,0.0,2.0,97,0.00,,,0.37,0,Wunderground v.1.15,2013-09-01 02:12:00,
2013-08-31 22:17:00,67.8,66.6,29.79,South,175,0.0,2.0,96,0.00,,,0.37,0,Wunderground v.1.15,2013-09-01 02:17:00,
2013-08-31 22:22:00,67.7,66.5,29.79,SE,144,1.0,3.0,96,0.00,,,0.37,0,Wunderground v.1.15,2013-09-01 02:22:00,
2013-08-31 22:28:00,67.5,66.3,29.79,South,189,2.0,3.0,96,0.00,,,0.37,0,Wunderground v.1.15,2013-09-01 02:28:00,
2013-08-31 22:34:00,67.5,66.3,29.79,SSE,154,2.0,2.0,96,0.00,,,0.37,0,Wunderground v.1.15,2013-09-01 02:34:00,
2013-08-31 22:39:00,67.3,66.1,29.79,SE,146,1.0,2.0,96,0.00,,,0.37,0,Wunderground v.1.15,2013-09-01 02:39:00,
2013-08-31 22:45:00,67.2,66.0,29.78,SE,144,1.0,3.0,96,0.00,,,0.37,0,Wunderground v.1.15,2013-09-01 02:45:00,
2013-08-31 22:50:00,67.1,66.2,29.78,SSE,159,1.0,2.0,97,0.00,,,0.37,0,Wunderground v.1.15,2013-09-01 02:50:00,
2013-08-31 22:55:00,67.0,66.1,29.78,South,174,1.0,2.0,97,0.00,,,0.37,0,Wunderground v.1.15,2013-09-01 02:55:00,
2013-08-31 23:01:00,67.0,65.8,29.79,South,172,1.0,3.0,96,0.00,,,0.37,0,Wunderground v.1.15,2013-09-01 03:01:00,
2013-08-31 23:06:00,66.9,66.0,29.78,South,176,1.0,3.0,97,0.00,,,0.37,0,Wunderground v.1.15,2013-09-01 03:06:00,
2013-08-31 23:12:00,66.9,66.0,29.78,SSE,154,1.0,1.0,97,0.00,,,0.37,0,Wunderground v.1.15,2013-09-01 03:12:00,
2013-08-31 23:17:00,66.9,66.0,29.78,South,169,1.0,3.0,97,0.00,,,0.37,0,Wunderground v.1.15,2013-09-01 03:17:00,
2013-08-31 23:23:00,66.9,66.0,29.79,SSE,165,1.0,2.0,97,0.00,,,0.37,0,Wunderground v.1.15,2013-09-01 03:23:00,
2013-08-31 23:28:00,66.9,66.0,29.79,South,186,0.0,2.0,97,0.00,,,0.37,0,Wunderground v.1.15,2013-09-01 03:28:00,
2013-08-31 23:33:00,66.9,66.0,29.78,South,184,1.0,3.0,97,0.00,,,0.38,0,Wunderground v.1.15,2013-09-01 03:33:00,
2013-08-31 23:38:00,66.8,65.9,29.78,SSE,159,1.0,3.0,97,0.00,,,0.38,0,Wunderground v.1.15,2013-09-01 03:38:00,
2013-08-31 23:43:00,66.7,65.8,29.78,SSE,164,1.0,2.0,97,0.35,,,0.40,0,Wunderground v.1.15,2013-09-01 03:43:00,
2013-08-31 23:49:00,66.7,65.8,29.78,South,180,1.0,2.0,97,0.13,,,0.42,0,Wunderground v.1.15,2013-09-01 03:49:00,
2013-08-31 23:54:00,66.7,65.8,29.78,SSE,166,1.0,3.0,97,0.10,,,0.43,0,Wunderground v.1.15,2013-09-01 03:54:00,
2013-08-31 23:59:00,66.7,66.1,29.77,South,189,1.0,3.0,98,0.07,,,0.00,0,Wunderground v.1.15,2013-09-01 03:59:00,